Location: Cutler
(25.6150°N, 80.3110°W)
Time: 04:40:21
(UTC-04:00)

Vanguard 2 - All Passes

Search period start: 24 April 2018 00:00
Search period end: 04 May 2018 00:00
Orbit: 553 x 2939 km, 32.9° (Epoch: 23 April)

Date Brightness Start Highest point End Pass type
(mag) Time Alt. Az. Time Alt. Az. Time Alt. Az.
24 Apr - 01:02:51 10° WNW 01:10:19 43° N 01:15:08 10° ENE visible
24 Apr - 03:14:28 10° WNW 03:19:33 53° NNE 03:23:29 10° E night (unlit)
24 Apr - 05:24:06 10° W 05:27:38 29° SSW 05:31:15 10° SSE visible
24 Apr - 18:44:11 10° SSW 18:56:53 27° SSE 19:06:37 10° E daylight
24 Apr - 20:53:51 10° SW 21:08:31 62° SSE 21:17:26 10° ENE visible
24 Apr - 23:07:30 10° W 23:18:53 67° NNW 23:25:31 10° ENE visible
25 Apr - 01:21:32 10° WNW 01:28:40 42° N 01:33:21 10° ENE visible
25 Apr - 03:32:40 10° WNW 03:37:44 76° NNE 03:41:42 10° ESE night (unlit)
25 Apr - 05:43:00 10° WSW 05:45:35 17° SSW 05:48:16 10° S visible
25 Apr - 16:59:06 10° SSE 17:02:47 11° SE 17:06:19 10° SE daylight
25 Apr - 19:00:49 10° SSW 19:15:18 36° SSE 19:25:50 10° E daylight
25 Apr - 21:11:56 10° WSW 21:26:47 77° SSE 21:35:37 10° ENE visible
25 Apr - 23:26:19 10° W 23:37:11 58° NNW 23:43:35 10° ENE visible
26 Apr - 01:40:05 10° WNW 01:47:02 45° N 01:51:36 10° ENE visible
26 Apr - 03:50:54 10° WNW 03:55:48 70° SSW 03:59:43 10° ESE night (unlit)
26 Apr - 17:11:34 10° S 17:21:23 17° SE 17:30:07 10° ESE daylight
26 Apr - 19:17:58 10° SW 19:33:40 46° SSE 19:44:34 10° E daylight
26 Apr - 21:30:19 10° WSW 21:45:03 89° NNW 21:53:44 10° ENE visible
26 Apr - 23:45:12 10° W 23:55:31 52° N 00:01:41 10° ENE visible
27 Apr - 01:58:31 10° WNW 02:05:22 53° N 02:09:53 10° E night (unlit)
27 Apr - 04:09:16 10° W 04:13:45 40° SSW 04:17:29 10° SE night (unlit)
27 Apr - 17:27:00 10° S 17:39:50 25° SE 17:50:45 10° E daylight
27 Apr - 19:35:32 10° SW 19:51:59 58° SSE 20:03:02 10° ENE daylight
27 Apr - 21:48:57 10° WSW 22:03:20 76° NNW 22:11:48 10° ENE visible
28 Apr - 00:04:03 10° WNW 00:13:55 50° N 00:19:53 10° ENE visible
28 Apr - 02:16:52 10° WNW 02:23:38 67° NNE 02:28:06 10° E night (unlit)
28 Apr - 04:27:55 10° W 04:31:36 23° SW 04:34:49 10° SSE night (unlit)
28 Apr - 17:43:21 10° SSW 17:58:11 33° SE 18:10:19 10° E daylight
28 Apr - 19:53:26 10° SW 20:10:18 71° SSE 20:21:19 10° ENE visible
28 Apr - 22:07:45 10° W 22:21:41 67° NNW 22:29:54 10° ENE visible
29 Apr - 00:22:49 10° WNW 00:32:22 51° N 00:38:07 10° ENE visible
29 Apr - 02:35:11 10° WNW 02:41:47 88° SSW 02:46:11 10° ESE night (unlit)
29 Apr - 04:47:23 10° WSW 04:49:24 13° SW 04:51:16 10° S night (unlit)
29 Apr - 15:56:10 10° SSE 16:04:09 14° SE 16:11:53 10° ESE daylight
29 Apr - 18:00:16 10° SSW 18:16:29 43° SE 18:29:19 10° E daylight
29 Apr - 20:11:39 10° WSW 20:28:37 84° SSE 20:39:30 10° ENE visible
29 Apr - 22:26:41 10° W 22:40:06 60° NNW 22:48:03 10° ENE visible
30 Apr - 00:41:27 10° WNW 00:50:47 55° N 00:56:23 10° E visible
30 Apr - 02:53:33 10° WNW 02:59:48 58° SSW 03:04:05 10° SE night (unlit)
30 Apr - 16:10:45 10° S 16:22:30 21° SE 16:33:37 10° E daylight
30 Apr - 18:17:37 10° SW 18:34:46 54° SSE 18:47:57 10° ENE daylight
30 Apr - 20:30:08 10° WSW 20:46:58 84° NNW 20:57:39 10° ENE visible
30 Apr - 22:45:38 10° W 22:58:34 57° N 23:06:14 10° ENE visible
01 May - 00:59:58 10° WNW 01:09:08 65° NNE 01:14:38 10° E visible
01 May - 03:12:05 10° W 03:17:39 36° SW 03:21:40 10° SSE night (unlit)
01 May - 16:26:43 10° SSW 16:40:43 30° SE 16:53:46 10° E daylight
01 May - 18:35:19 10° SW 18:53:03 66° SSE 19:06:22 10° ENE daylight
01 May - 20:48:51 10° WSW 21:05:23 74° NNW 21:15:48 10° ENE visible
01 May - 23:04:33 10° WNW 23:17:05 56° N 23:24:29 10° ENE visible
02 May - 01:18:25 10° WNW 01:27:24 81° NNE 01:32:46 10° ESE visible
02 May - 03:30:58 10° W 03:35:22 22° SW 03:38:49 10° S night (unlit)
02 May - 14:44:21 10° SE 14:46:58 10° SE 14:49:36 10° SE daylight
02 May - 16:43:22 10° SSW 16:58:53 39° SE 17:13:06 10° E daylight
02 May - 18:53:21 10° SW 19:11:22 78° SSE 19:24:39 10° ENE daylight
02 May - 21:07:43 10° W 21:23:52 67° NNW 21:33:59 10° ENE visible
02 May - 23:23:22 10° WNW 23:35:36 59° N 23:42:46 10° E visible
03 May - 01:36:51 10° WNW 01:45:32 76° SSW 01:50:46 10° ESE visible
03 May - 03:50:52 10° WSW 03:53:00 12° SW 03:54:54 10° SSW night (unlit)
03 May - 14:55:54 10° S 15:05:11 17° SE 15:14:49 10° ESE daylight
03 May - 17:00:30 10° SSW 17:17:03 49° SE 17:32:00 10° ENE daylight
03 May - 19:11:38 10° WSW 19:29:45 90° SSE 19:42:53 10° ENE daylight
03 May - 21:26:41 10° W 21:42:25 63° N 21:52:13 10° ENE visible
